This is the latest recevied weather packets stored in our database for station/object KG5APU. If no packets are shown the sender has not sent any weather packets the latest 1 day(s).
| Time | Temp. | Humidity | Pressure | Rain* | Wind** | Luminosity | Snow |
|---|---|---|---|---|---|---|---|
| 1778001638 | 27.22° C | 73% | 1006 hPa | 0 mm | 2.68 m/s, 170° | 744 W/m² | - |
| 1778001036 | 27.22° C | 73% | 1006.2 hPa | 0 mm | 1.34 m/s, 215° | 454 W/m² | - |
| 1778000435 | 27.22° C | 71% | 1006.1 hPa | 0 mm | 4.02 m/s, 200° | 657 W/m² | - |
| 1777999832 | 26.67° C | 73% | 1006.1 hPa | 0 mm | 4.47 m/s, 232° | 505 W/m² | - |
| 1777999232 | 26.67° C | 74% | 1006.1 hPa | 0 mm | 3.13 m/s, 174° | 422 W/m² | - |
| 1777998627 | 26.11° C | 76% | 1005.9 hPa | 0 mm | 2.68 m/s, 222° | 470 W/m² | - |
| 1777998023 | 26.11° C | 76% | 1006 hPa | 0 mm | 3.58 m/s, 164° | 580 W/m² | - |
| 1777997423 | 25.56° C | 76% | 1005.7 hPa | 0 mm | 3.13 m/s, 173° | 544 W/m² | - |
| 1777996818 | 25.56° C | 77% | 1005.6 hPa | 0 mm | 2.24 m/s, 155° | 524 W/m² | - |
| 1777996216 | 25° C | 79% | 1005.7 hPa | 0 mm | 2.68 m/s, 218° | 423 W/m² | - |
| 1777995615 | 25° C | 78% | 1005.6 hPa | 0 mm | 2.68 m/s, 232° | 388 W/m² | - |
| 1777995015 | 25° C | 79% | 1005.7 hPa | 0 mm | 1.79 m/s, 123° | 364 W/m² | - |
| 1777994413 | 24.44° C | 80% | 1005.8 hPa | 0 mm | 1.34 m/s, 160° | 452 W/m² | - |
| 1777993811 | 23.89° C | 81% | 1006 hPa | 0 mm | 4.47 m/s, 190° | 320 W/m² | - |
| 1777993209 | 23.89° C | 81% | 1006 hPa | 0 mm | 2.68 m/s, 185° | 287 W/m² | - |
| 1777992604 | 23.89° C | 82% | 1005.8 hPa | 0 mm | 1.79 m/s, 163° | 305 W/m² | - |
| 1777992005 | 23.89° C | 82% | 1005.3 hPa | 0 mm | 3.13 m/s, 188° | 232 W/m² | - |
| 1777991404 | 23.89° C | 82% | 1005.5 hPa | 0 mm | 3.13 m/s, 184° | 476 W/m² | - |
| 1777990804 | 22.78° C | 84% | 1005.8 hPa | 0 mm | 3.58 m/s, 183° | 281 W/m² | - |
| 1777990204 | 22.78° C | 84% | 1006.1 hPa | 0 mm | 2.24 m/s, 204° | 142 W/m² | - |
| 1777989603 | 22.78° C | 84% | 1006.1 hPa | 0 mm | 3.58 m/s, 209° | 163 W/m² | - |
| 1777989002 | 22.78° C | 85% | 1005.8 hPa | 0 mm | 2.24 m/s, 205° | 125 W/m² | - |
| 1777988401 | 22.78° C | 85% | 1005.9 hPa | 0 mm | 3.13 m/s, 212° | 125 W/m² | - |
| 1777987799 | 22.78° C | 85% | 1006 hPa | 0 mm | 4.02 m/s, 224° | 122 W/m² | - |
| 1777987194 | 22.22° C | 86% | 1006.2 hPa | 0 mm | 3.13 m/s, 184° | 79 W/m² | - |
* Rain latest hour (hover to see other rain measurements)
** Current wind speed in m/s (hover to see current wind gust speed)